Weather History for KCDR - April, 2013

Change the Weather History Date:

Monday, April 22, 2013

  Actual Average Record
Temperature  
Mean Temperature 28 °F 47 °F  
Max Temperature 40 °F 62 °F 88 °F (1939)
Min Temperature 16 °F 32 °F 13 °F (1951)
Degree Days  
Heating Degree Days 37 18  
Month to date heating degree days 643 474  
Since 1 July heating degree days 6412 6631  
Cooling Degree Days 0 0  
Month to date cooling degree days 0 0  
Year to date cooling degree days 0 0  
Moisture  
Dew Point 25 °F    
Average Humidity 84    
Maximum Humidity 100    
Minimum Humidity 68    
Precipitation  
Precipitation 0.11 in 0.07 in 0.72 in (1988)
Month to date precipitation 0.78 1.31  
Year to date precipitation 2.32 3.51  
Sea Level Pressure  
Sea Level Pressure 30.24 in    
Wind  
Wind Speed 15 mph (NE)    
Max Wind Speed 36 mph    
Max Gust Speed 44 mph    
Visibility 3 miles    
Events Fog , Rain , Snow    
T = Trace of Precipitation, MM = Missing Value Source: NWS Daily Summary

Daily Weather History Graph

Daily Weather History Graph

Search for Another Location

Airport or City:

Trip Planner

Search our weather history database for the weather conditions in past years. The results will help you decide how hot, cold, wet, or windy it might be!

Date:

Astronomy

Apr. 22, 2013 Rise Set
Actual Time 5:59 AM MDT 7:43 PM MDT
Civil Twilight 5:29 AM MDT 8:13 PM MDT
Nautical Twilight 4:52 AM MDT 8:49 PM MDT
Astronomical Twilight 4:13 AM MDT 9:29 PM MDT
Moon 4:30 PM MDT (4/22) 3:59 AM MDT (4/22)
Length of Visible Light 14h 44m
Length of Day
13h 43m
Waxing Gibbous, 88% of the Moon is Illuminated
Apr 22
Waxing Gibbous
Apr 25
Full
May 2
Last Quarter
May 9
New
May 17
First Quarter

Hourly Weather History & Observations

Time (MDT) Temp. Windchill Dew Point Humidity Pressure Visibility Wind Dir Wind Speed Gust Speed Precip Events Conditions
12:02 AM 37.4 °F 30.8 °F 35.6 °F 93% 30.05 in 6.0 mi NE 9.2 mph - 0.01 in Rain Light Rain
12:26 AM 37.4 °F 29.8 °F 35.6 °F 93% 30.04 in 2.5 mi NE 11.5 mph - 0.04 in Rain Rain
12:43 AM 37.4 °F 30.8 °F 35.6 °F 93% 30.03 in 3.0 mi ENE 9.2 mph - 0.07 in Rain Light Rain
12:53 AM 37.0 °F 29.8 °F 36.0 °F 96% 30.06 in 4.0 mi NE 10.4 mph - 0.08 in Rain Light Rain
1:05 AM 35.6 °F 28.0 °F 35.6 °F 100% 30.01 in 4.0 mi ENE 10.4 mph - 0.01 in Rain Light Rain
1:53 AM 36.0 °F 27.5 °F 35.1 °F 97% 30.01 in 8.0 mi ENE 12.7 mph - 0.02 in   Overcast
2:15 AM 37.4 °F 30.3 °F 35.6 °F 93% 29.96 in 10.0 mi ENE 10.4 mph - N/A   Overcast
2:53 AM 39.9 °F 35.1 °F 37.0 °F 89% 29.99 in 10.0 mi ENE 6.9 mph - 0.00 in Rain Light Rain
3:45 AM 35.6 °F 25.2 °F 33.8 °F 93% 29.98 in 5.0 mi NNE 18.4 mph 23.0 mph 0.05 in Rain Light Rain
3:53 AM 35.1 °F 24.8 °F 33.1 °F 92% 30.04 in 2.5 mi NNE 17.3 mph - 0.07 in Rain Rain
4:01 AM 33.8 °F 22.8 °F 32.0 °F 93% 29.99 in 2.5 mi NNE 18.4 mph 26.5 mph 0.00 in Snow Light Snow
4:09 AM 32.0 °F 20.1 °F 30.2 °F 93% 29.99 in 1.0 mi NNE 19.6 mph 26.5 mph 0.00 in Snow Light Snow
4:31 AM 32.0 °F 17.9 °F 30.2 °F 93% 30.01 in 0.5 mi NNE 28.8 mph 38.0 mph 0.00 in Fog , Snow Snow
4:53 AM 30.9 °F 16.2 °F 28.9 °F 92% 30.09 in 0.5 mi NNE 29.9 mph 41.4 mph 0.00 in Fog , Snow Snow
5:02 AM 30.2 °F 14.7 °F 28.4 °F 93% 30.03 in 0.2 mi NE 32.2 mph 43.7 mph 0.00 in Fog , Snow Snow
5:53 AM 28.0 °F 12.8 °F 27.0 °F 96% 30.14 in 0.2 mi NE 27.6 mph 38.0 mph 0.00 in Fog Light Freezing Fog
6:00 AM 28.4 °F 14.1 °F 26.6 °F 93% 30.07 in 0.2 mi NE 24.2 mph 40.3 mph N/A Fog Light Freezing Fog
6:25 AM 26.6 °F 12.0 °F 26.6 °F 100% 30.09 in 0.2 mi NE 23.0 mph 33.4 mph N/A Fog Light Freezing Fog
6:53 AM 27.0 °F 13.2 °F 26.1 °F 96% 30.22 in 0.2 mi NNE 20.7 mph 28.8 mph N/A Fog Light Freezing Fog
7:21 AM 26.6 °F 12.0 °F 24.8 °F 93% 30.15 in 0.2 mi NE 23.0 mph 28.8 mph N/A Fog Light Freezing Fog
7:32 AM 26.6 °F 12.4 °F 24.8 °F 93% 30.16 in 0.5 mi NE 21.9 mph 27.6 mph N/A Fog Light Freezing Fog
7:50 AM 26.6 °F 13.4 °F 24.8 °F 93% 30.17 in 0.5 mi NE 18.4 mph - N/A Fog Light Freezing Fog
7:53 AM 27.0 °F 13.5 °F 25.0 °F 92% 30.27 in 0.5 mi NE 19.6 mph - N/A Fog Light Freezing Fog
8:08 AM 26.6 °F 12.7 °F 24.8 °F 93% 30.18 in 0.2 mi NE 20.7 mph 25.3 mph N/A Fog Light Freezing Fog
8:29 AM 26.6 °F 13.1 °F 24.8 °F 93% 30.19 in 0.5 mi NNE 19.6 mph - N/A Fog Light Freezing Fog
8:51 AM 26.6 °F 13.8 °F 24.8 °F 93% 30.20 in 0.5 mi NE 17.3 mph - N/A Fog Light Freezing Fog
8:53 AM 27.0 °F 14.3 °F 25.0 °F 92% 30.30 in 0.5 mi NE 17.3 mph - N/A Fog Light Freezing Fog
9:40 AM 28.4 °F 15.1 °F 24.8 °F 86% 30.22 in 0.8 mi NE 20.7 mph - N/A   Overcast
9:49 AM 28.4 °F 15.4 °F 24.8 °F 86% 30.23 in 0.5 mi NE 19.6 mph 27.6 mph N/A Fog Light Freezing Fog
9:53 AM 28.0 °F 16.1 °F 24.1 °F 85% 30.34 in 0.2 mi NNE 16.1 mph 27.6 mph N/A Fog Light Freezing Fog
10:05 AM 28.4 °F 15.1 °F 24.8 °F 86% 30.24 in 0.5 mi NE 20.7 mph 25.3 mph N/A Fog Light Freezing Fog
10:21 AM 28.4 °F 17.0 °F 24.8 °F 86% 30.25 in 0.8 mi NE 15.0 mph - N/A   Overcast
10:46 AM 28.4 °F 15.4 °F 24.8 °F 86% 30.26 in 1.5 mi NNE 19.6 mph - 0.01 in   Haze
10:48 AM 28.4 °F 14.7 °F 24.8 °F 86% 30.26 in 1.5 mi NE 21.9 mph 26.5 mph 0.01 in   Overcast
10:53 AM 28.9 °F 15.4 °F 24.1 °F 82% 30.36 in 1.8 mi NE 21.9 mph 26.5 mph 0.01 in   Haze
11:07 AM 28.4 °F 14.4 °F 24.8 °F 86% 30.26 in 1.5 mi NE 23.0 mph - N/A   Haze
11:10 AM 28.4 °F 15.1 °F 23.0 °F 80% 30.27 in 1.8 mi NE 20.7 mph - 0.01 in   Haze
11:27 AM 28.4 °F 15.8 °F 24.8 °F 86% 30.28 in 0.8 mi NE 18.4 mph - 0.01 in   Overcast
11:37 AM 28.4 °F 16.2 °F 24.8 °F 86% 30.28 in 0.8 mi NE 17.3 mph - 0.01 in   Overcast
11:42 AM 28.4 °F 15.8 °F 24.8 °F 86% 30.29 in 0.8 mi NNE 18.4 mph - 0.01 in   Overcast
11:53 AM 28.0 °F 15.3 °F 24.1 °F 85% 30.40 in 1.0 mi NNE 18.4 mph - 0.01 in   Overcast
12:00 PM 28.4 °F 15.4 °F 23.0 °F 80% 30.29 in 2.0 mi NNE 19.6 mph - N/A   Haze
12:03 PM 28.4 °F 15.8 °F 23.0 °F 80% 30.29 in 3.0 mi NNE 18.4 mph - N/A   Haze
12:13 PM 28.4 °F 15.4 °F 21.2 °F 74% 30.29 in 4.0 mi NNE 19.6 mph - N/A   Haze
12:20 PM 28.4 °F 15.1 °F 23.0 °F 80% 30.29 in 4.0 mi NNE 20.7 mph - N/A   Haze
12:53 PM 28.0 °F 15.7 °F 23.0 °F 81% 30.40 in 1.5 mi NNE 17.3 mph - N/A   Haze
1:06 PM 28.4 °F 15.8 °F 23.0 °F 80% 30.30 in 0.8 mi NNE 18.4 mph - N/A   Haze
1:15 PM 28.4 °F 16.6 °F 24.8 °F 86% 30.29 in 1.2 mi NNE 16.1 mph - N/A   Haze
1:53 PM 28.0 °F 13.9 °F 21.9 °F 78% 30.41 in 2.5 mi NNE 23.0 mph 27.6 mph N/A   Haze
2:00 PM 28.4 °F 16.2 °F 21.2 °F 74% 30.30 in 4.0 mi NNE 17.3 mph 27.6 mph N/A   Haze
2:53 PM 28.0 °F 14.9 °F 21.9 °F 78% 30.41 in 4.0 mi NNE 19.6 mph 25.3 mph N/A   Haze
3:53 PM 28.0 °F 15.3 °F 23.0 °F 81% 30.40 in 4.0 mi NNE 18.4 mph - 0.00 in   Overcast
4:53 PM 28.0 °F 16.1 °F 21.0 °F 75% 30.43 in 6.0 mi NNE 16.1 mph 23.0 mph 0.00 in   Haze
5:31 PM 28.4 °F 16.2 °F 17.6 °F 64% 30.31 in 8.0 mi NNE 17.3 mph 24.2 mph N/A   Partly Cloudy
5:53 PM 27.0 °F 14.7 °F 19.9 °F 75% 30.46 in 7.0 mi NE 16.1 mph - N/A   Mostly Cloudy
6:29 PM 26.6 °F 14.3 °F 17.6 °F 69% 30.34 in 7.0 mi NNE 16.1 mph - N/A   Overcast
6:53 PM 27.0 °F 15.6 °F 17.1 °F 66% 30.49 in 8.0 mi NE 13.8 mph - N/A   Overcast
7:48 PM 26.6 °F 17.5 °F 19.4 °F 74% 30.35 in 7.0 mi NE 9.2 mph - N/A   Overcast
7:53 PM 26.1 °F 17.6 °F 19.0 °F 75% 30.49 in 7.0 mi NE 8.1 mph - N/A   Overcast
8:12 PM 24.8 °F 16.1 °F 17.6 °F 74% 30.35 in 9.0 mi NNE 8.1 mph - N/A   Scattered Clouds
8:53 PM 23.0 °F - 18.0 °F 81% 30.51 in 8.0 mi Calm Calm - N/A   Clear
9:53 PM 21.0 °F - 17.1 °F 85% 30.52 in 8.0 mi Calm Calm - N/A   Clear
10:53 PM 18.0 °F 9.8 °F 15.1 °F 88% 30.53 in 8.0 mi SW 5.8 mph - N/A   Mostly Cloudy
11:53 PM 18.0 °F 9.8 °F 16.0 °F 92% 30.51 in 7.0 mi SW 5.8 mph - N/A   Mostly Cloudy